RH
92 89 90 84 83 84 79 78 79 81 70 35 32 28 24 22 20 20 24 23 28 32 35 39 39 44 48 50 54 62 62 65 70 80 84 80 80 80 78 79 79 80 78
84 84 83 82 82 83 79 79 83 50 32 28 25 23 21 20 20 20 24 25 30 32 35 36 36 36 39 42 42 41 42 44 46 49 51 52 53 56 57 58 60 62 62
84 83 81 84 84 80 79 82 34 30 30 28 24 21 20 20 19 20 24 28 29 26 19 12 10 10 12 14 14 12 9 8 7 7 9 13 19 27 33 40 44 46 47
80 82 85 82 83 80 74 33 34 32 25 20 19 20 20 19 19 20 23 25 20 13 10 9 9 7 7 7 7 6 5 4 4 4 4 4 5 7 12 9 9 10 11
82 87 86 82 82 72 34 35 34 27 22 19 19 20 19 19 21 21 28 29 29 24 18 18 14 9 8 9 9 8 7 7 6 6 6 6 6 13 35 53 38 19 14
88 90 85 82 82 35 36 38 34 32 28 22 19 18 16 16 17 23 28 34 14 11 14 16 12 10 10 9 9 8 8 8 7 7 7 11 20 79 93 91 92 91 91
97 86 82 82 36 37 42 40 40 38 34 27 20 24 19 14 14 22 16 19 14 13 12 12 12 11 11 11 11 11 11 11 11 11 12 21 56 90 91 94 94 93 90
95 83 80 39 37 44 44 45 45 43 38 30 21 25 26 25 25 18 20 14 18 14 13 13 13 13 14 13 13 12 12 11 11 11 14 52 91 93 92 92 92 91 89
89 71 44 37 43 46 47 48 48 46 38 31 22 20 23 25 27 23 21 19 16 22 19 16 15 15 14 14 13 12 11 10 10 11 41 90 93 91 91 91 90 89 88
64 49 38 40 46 48 49 50 50 47 40 28 23 18 17 19 27 26 28 32 31 29 32 26 18 16 15 15 13 11 10 10 8 14 84 91 92 91 90 88 86 84 82
47 39 40 45 48 49 50 51 51 46 38 27 21 19 22 28 35 37 34 30 33 35 40 44 44 36 41 42 46 50 40 58 84 90 90 91 91 89 86 84 82 80 84
45 40 42 47 49 50 51 52 50 45 35 24 20 19 20 30 30 34 33 34 37 38 40 44 43 44 42 47 45 48 27 26 85 90 91 91 90 88 86 83 82 86 93
49 41 45 48 50 51 52 52 48 41 29 22 20 21 22 25 30 38 42 43 42 43 42 44 42 45 49 53 56 51 23 38 64 85 90 90 90 88 86 83 84 88 84
44 42 47 50 51 52 53 50 45 34 24 21 22 24 25 26 30 44 50 53 48 42 39 37 40 46 54 57 68 79 76 78 84 87 87 87 87 86 85 82 86 94 96
41 45 49 50 52 53 51 48 38 28 23 24 27 28 28 30 32 40 50 58 58 53 46 42 42 48 55 64 68 76 77 80 84 88 90 90 92 93 88 84 95 93 98
43 47 50 52 53 52 49 42 32 24 26 29 30 30 30 34 31 40 55 62 62 61 60 49 51 57 64 70 74 78 76 84 86 90 89 88 89 89 90 88 88 89 88
45 48 51 53 52 50 45 34 26 25 29 30 31 30 28 27 31 47 59 63 63 64 64 58 64 69 75 76 74 76 80 88 83 76 79 84 89 93 94 93 94 94 95
47 50 52 53 51 47 38 28 26 28 30 31 31 28 27 36 32 52 62 66 69 76 78 78 78 80 77 77 84 87 82 70 67 70 80 90 94 95 97 98 95 97 96
50 52 53 52 48 40 30 26 27 30 33 32 28 25 28 36 52 66 71 77 82 81 84 91 88 78 82 93 90 78 75 69 73 77 81 88 93 96 100 99 96 96 95
51 52 52 49 43 32 26 27 32 35 33 28 27 29 41 52 69 78 85 85 79 85 83 85 89 85 100 85 78 69 70 76 82 85 86 93 91 94 95 93 95 97 96
51 51 50 45 35 25 26 34 36 33 34 40 41 54 60 60 47 84 96 91 89 88 90 86 96 98 86 76 68 74 85 88 84 91 85 85 83 87 89 92 94 96 96
51 49 45 36 25 25 35 37 29 22 36 55 56 58 71 81 86 95 96 94 94 96 95 99 99 91 78 72 81 89 93 98 97 88 88 88 93 91 86 87 91 96 100
48 46 36 25 25 37 38 29 20 15 39 48 63 75 78 80 91 91 95 97 94 99 100 91 93 79 81 85 88 94 99 97 99 92 99 91 89 92 86 80 88 98 96
46 35 24 26 39 39 30 20 15 18 48 74 79 82 85 88 89 93 95 94 100 94 85 86 86 90 94 95 98 97 97 96 95 94 100 98 88 94 89 72 57 60 78
34 24 29 40 39 30 20 15 15 32 72 76 81 82 88 88 94 94 97 93 90 81 81 88 98 100 100 100 100 100 95 100 100 96 80 100 96 99 87 61 61 69 83
23 32 42 40 31 19 16 15 16 52 74 77 78 81 82 91 92 96 96 91 88 82 91 94 95 90 94 97 100 100 96 97 100 100 86 97 98 100 98 85 71 63 66
Wind_Speed
10 10 8 5 5 6 6 9 13 14 14 15 17 18 18 17 16 14 13 12 12 11 13 14 13 11 13 14 14 16 17 18 18 19 21 21 21 21 20 20 20 21 21
10 8 7 8 7 7 8 11 15 13 15 16 18 18 17 16 14 12 10 11 11 11 12 13 13 14 15 16 16 17 20 21 22 23 24 25 25 25 26 25 25 25 25
11 10 9 8 8 8 10 13 12 13 16 17 18 17 15 14 13 10 9 9 10 10 11 12 13 13 15 16 17 19 21 23 24 25 26 26 27 28 29 31 32 32 31
11 11 9 8 9 10 10 10 12 14 15 15 15 15 15 14 12 10 9 9 9 10 11 12 14 17 18 19 21 22 23 25 26 26 28 29 27 27 28 30 31 32 33
15 13 9 8 11 9 7 9 12 13 13 12 13 13 14 13 11 10 10 11 12 15 18 20 19 20 21 24 25 25 26 27 28 30 29 29 29 28 28 29 31 33 33
18 14 11 9 10 7 6 8 10 12 12 13 12 12 10 7 8 8 9 11 14 16 16 20 22 24 28 28 27 27 27 28 30 30 31 29 28 24 23 25 27 28 27
18 14 12 10 9 6 5 6 9 11 13 14 12 10 8 6 9 10 8 11 18 21 21 19 26 26 29 28 28 27 27 28 29 30 30 29 27 25 25 27 29 28 27
19 17 13 12 8 5 4 6 9 12 14 15 12 8 5 4 2 5 19 8 14 14 20 21 26 25 26 28 26 28 28 29 30 31 30 28 25 27 29 30 31 31 31
21 17 15 12 8 5 5 6 9 11 12 14 12 6 5 4 14 7 9 15 12 19 22 26 25 26 29 24 29 29 30 30 31 32 30 28 30 31 32 33 34 34 35
21 18 16 12 9 6 6 7 10 11 12 11 13 12 9 9 6 10 8 12 14 19 22 23 25 29 23 27 28 28 29 30 35 34 30 31 32 33 34 36 37 38 39
22 19 17 13 9 7 6 8 10 12 12 12 12 13 12 11 9 10 20 15 20 20 20 16 25 20 20 22 22 21 29 32 30 29 30 31 33 35 37 39 40 41 42
23 21 17 13 9 7 7 9 11 12 14 13 13 14 12 10 11 13 20 24 26 23 20 24 19 20 23 22 23 26 36 36 32 31 31 32 33 35 37 39 40 41 41
24 22 16 12 9 7 8 9 11 13 14 14 15 14 16 15 17 17 19 24 25 25 22 16 22 21 22 20 23 33 38 35 32 31 33 34 35 36 37 39 40 41 42
25 21 15 12 9 8 8 10 12 13 14 15 16 17 18 18 18 18 19 22 31 25 25 21 24 18 17 24 28 30 29 29 30 32 34 36 37 38 39 39 40 40 40
24 19 14 11 9 8 9 10 12 14 14 15 17 18 19 19 19 19 20 19 22 32 32 22 15 21 26 26 28 29 30 30 32 35 36 36 37 37 40 41 40 42 41
21 17 13 10 9 9 10 11 13 14 14 17 18 19 19 19 21 21 20 20 21 26 37 28 29 27 27 29 28 29 30 33 35 35 37 38 38 37 37 39 39 39 40
19 15 11 9 9 9 10 12 13 15 16 19 20 20 21 22 22 20 19 20 22 23 34 39 31 29 30 29 29 29 30 34 38 38 36 37 37 36 36 37 39 40 40
17 13 10 9 8 9 11 12 14 16 18 20 20 21 22 21 23 20 19 20 21 23 29 40 36 35 32 31 30 31 36 34 36 34 35 36 37 37 37 36 38 39 40
14 11 9 8 8 10 12 14 15 18 19 20 21 22 22 22 21 19 20 21 22 25 28 35 42 39 37 31 36 39 30 33 29 31 35 35 35 37 36 36 37 39 41
12 9 7 7 9 11 13 15 17 18 19 20 21 22 22 22 20 21 21 23 25 27 30 34 37 42 30 37 39 34 34 32 35 33 40 35 34 35 35 37 39 39 39
9 7 6 8 10 12 14 16 17 18 19 19 20 21 21 22 25 22 22 23 25 30 32 37 37 31 40 38 35 34 36 39 43 34 38 38 35 43 42 38 37 35 34
7 6 7 9 11 13 16 18 19 19 19 20 20 21 20 21 20 22 23 24 26 30 34 37 35 37 36 34 34 37 42 36 43 34 30 48 39 43 42 41 36 36 37
5 6 8 10 12 14 17 19 20 21 20 20 20 20 20 20 22 22 24 26 28 28 26 35 34 31 34 34 40 40 40 42 40 42 38 48 39 42 42 42 38 36 32
5 7 9 11 14 16 18 19 21 21 19 18 18 20 21 21 21 24 28 32 28 31 27 27 28 31 35 36 36 39 38 39 40 40 30 39 42 38 41 46 35 24 31
6 8 10 13 15 17 19 21 22 19 16 18 19 20 20 23 23 26 28 33 31 28 25 25 28 30 31 34 29 29 32 33 39 41 41 30 29 40 44 43 33 31 33
6 9 12 15 16 17 19 21 22 18 17 18 20 20 21 22 26 26 29 30 31 27 27 32 29 28 25 24 23 22 27 31 35 39 30 29 39 30 27 31 38 41 40
Wind_Direction
178 189 216 217 232 253 269 287 294 300 302 307 307 308 307 305 301 298 292 291 284 283 283 287 295 290 285 287 286 286 287 285 283 281 281 283 283 282 279 276 275 273 273
195 213 218 225 250 259 274 288 292 299 307 311 310 310 308 304 300 295 283 288 282 284 285 286 291 289 287 287 286 286 287 285 284 282 281 280 279 278 278 275 272 270 269
212 217 228 247 253 263 283 287 298 312 316 316 313 312 310 305 298 291 279 274 280 281 284 291 295 295 293 293 292 292 292 291 291 289 287 284 282 280 277 275 273 272 271
207 218 232 250 259 269 276 295 314 319 321 320 320 314 310 302 289 275 269 265 270 285 293 297 303 302 301 302 300 297 296 294 293 293 291 290 290 288 284 281 278 276 275
212 218 226 247 260 256 278 310 319 324 326 327 324 315 305 292 274 264 260 268 276 287 291 295 297 304 305 308 307 304 301 298 297 296 295 293 290 287 284 284 283 282 281
211 215 215 235 242 248 293 317 326 331 334 337 333 324 309 295 273 257 266 275 285 309 301 300 304 309 311 312 309 306 304 301 299 298 297 295 293 288 285 285 288 289 286
208 210 215 222 222 247 291 320 332 337 341 344 348 336 318 298 285 266 272 294 288 296 307 312 312 313 311 308 306 304 302 300 299 296 296 294 292 289 287 286 288 286 277
206 201 210 207 218 241 291 323 338 343 342 347 353 352 316 288 312 285 288 297 299 296 298 303 306 308 310 310 307 306 303 300 297 296 296 295 295 291 288 286 286 283 278
197 196 199 209 217 247 292 325 339 344 340 341 350 3 319 292 307 280 279 294 295 301 303 308 312 316 315 313 312 309 307 303 301 298 298 297 293 291 288 285 284 281 277
190 197 202 211 225 253 293 322 332 336 340 335 339 337 327 302 305 304 289 303 287 307 308 308 311 314 309 310 308 307 304 301 302 299 299 296 293 290 287 285 283 281 278
190 197 206 215 232 257 294 316 326 331 333 332 330 328 321 312 292 286 301 301 302 304 302 299 306 308 307 308 307 306 302 313 308 304 301 297 292 289 286 284 281 279 278
194 200 206 218 237 264 294 312 321 326 329 326 324 321 316 305 297 292 293 299 302 308 300 303 304 303 307 304 306 301 309 312 308 304 301 298 294 291 287 284 281 280 278
202 203 207 221 241 266 292 308 318 324 323 321 320 315 312 307 302 298 295 298 299 303 307 301 302 302 300 303 304 305 308 306 306 304 302 300 296 293 290 286 282 281 279
204 203 210 226 245 270 292 308 318 319 318 317 315 313 310 306 302 298 296 301 305 304 300 299 298 291 294 300 300 303 303 300 300 300 299 298 295 293 291 288 285 284 282
200 203 215 231 250 275 295 310 315 316 316 315 312 310 308 304 302 301 298 296 296 301 302 303 296 297 300 301 301 301 300 299 297 297 298 296 293 292 290 288 285 284 282
198 207 220 236 258 280 300 309 314 316 315 312 309 306 307 305 304 302 298 294 291 290 292 295 299 300 302 301 302 303 301 297 297 297 298 294 292 292 289 287 285 284 281
200 211 223 242 264 289 303 311 315 314 313 308 309 309 307 306 306 301 297 295 292 291 290 296 299 301 302 304 304 301 299 298 301 300 295 295 295 294 292 288 287 285 282
203 213 229 249 276 297 307 311 312 312 309 310 309 308 308 307 307 304 301 298 295 294 294 297 302 304 306 306 301 303 305 299 296 298 298 298 298 295 293 291 289 287 284
207 219 236 262 289 303 308 311 311 311 310 309 309 307 307 307 305 302 302 299 298 296 294 295 301 303 305 305 308 305 306 302 301 301 299 297 298 294 294 293 291 287 284
213 227 250 278 297 305 309 311 313 312 311 310 306 306 305 303 302 304 302 299 297 296 297 295 296 301 302 307 308 307 307 306 305 305 302 301 299 296 295 293 291 288 285
219 239 268 289 303 309 310 314 315 314 311 305 304 303 303 300 302 301 299 300 299 296 294 298 298 301 307 309 308 307 306 307 310 308 304 307 305 301 302 298 294 290 288
227 254 281 299 306 308 312 316 317 314 307 305 304 305 304 302 301 300 299 298 297 298 299 300 299 303 302 303 305 305 306 307 307 314 303 302 306 302 303 301 297 294 291
240 272 294 303 307 312 316 318 316 315 307 305 305 304 304 302 304 304 303 304 300 299 293 297 297 297 299 298 303 308 302 303 298 302 307 302 307 300 303 308 306 301 293
260 285 297 306 314 316 318 318 319 317 308 304 304 303 303 305 307 307 307 306 304 304 300 294 293 294 295 299 300 297 297 297 303 305 305 295 307 304 310 311 318 313 316
273 293 307 314 317 318 320 322 321 318 308 305 306 308 307 307 305 312 309 309 309 304 301 298 299 298 295 296 296 297 300 302 301 307 317 304 307 305 312 318 324 321 312
291 310 315 318 318 320 322 323 324 319 311 310 312 309 307 306 310 312 311 308 306 305 306 312 307 299 300 300 302 297 295 297 303 306 314 308 311 316 313 308 312 321 324